Location: Espelette
(43.3402°N, 1.4474°W)
Time: 19:15:09
(UTC+00:00)

Okean 1 - Pass Details

Date: 19 May 2025
Orbit: 478 x 498 km, 82.5° (Epoch: 22 June)

Event Time Altitude Azimuth Distance (km) Brightness Sun altitude
Exits shadow 21:43:49 50° 102° (ESE) 629 3.3 -19.1°
Maximum altitude 21:43:56 51° 95° (E) 627 3.3 -19.2°
Drops below altitude 10° 21:47:31 10° 19° (NNE) 1,684 6.3 -19.5°
Sets 21:49:39 0° 14° (NNE) 2,566 7.4 -19.7°
